Location: Mentone
(34.5413°N, 85.5351°W)
Time: 20:09:25
(UTC-05:00)

Centaur AC-72 - Visible Passes

Search period start: 31 March 2015 00:00
Search period end: 10 April 2015 00:00
Orbit: 1115 x 35241 km, 19.0° (Epoch: 31 March)

Date Brightness Start Highest point End Pass type
(mag) Time Alt. Az. Time Alt. Az. Time Alt. Az.
02 Apr 5.0 05:51:00 10° WSW 06:00:25 47° S 15:08:26 10° SE visible
03 Apr 4.9 03:07:16 23° SE 03:07:16 23° SE 03:14:59 10° ESE visible
06 Apr 4.9 05:35:26 11° WSW 05:44:28 46° S 14:51:07 10° SE visible
07 Apr 4.9 02:52:03 21° SE 02:52:03 21° SE 02:58:40 10° ESE visible
08 Apr 6.2 11:09:50 10° WSW 20:52:17 11° S 20:56:33 10° S visible
